Flag for United Kingdom

Past Weather in Loughborough, England, United Kingdom — Yesterday and Last 2 Weeks

Now
61 °F

Partly sunny.


Feels Like: 61 °F
Forecast: 84 / 64 °F
Wind: 12 mph from North

Location: East Midlands

Current Time: Aug 10, 2020 at 8:33:36 am

Latest Report: Aug 10, 2020 at 7:50 am


Visibility: N/A

Pressure: 30.04 "Hg

Humidity: 88%

Dew Point: 57 °F

Location of LoughboroughLocation

Past Weather in Loughborough — Graph

°F

Loughborough Temperature Yesterday

Maximum temperature yesterday: 70 °F (at 1:50 pm)
Minimum temperature yesterday: 57 °F (at 1:50 am)
Average temperature yesterday: 63 °F

High & Low Weather Summary for the Past Weeks

 TemperatureHumidityPressure
High93 °F (Jul 31, 3:50 pm)100% (Aug 9, 4:20 am)30.21 "Hg (Aug 9, 4:20 am)
Low46 °F (Aug 4, 2:50 am)26% (Jul 31, 2:20 pm)29.50 "Hg (Jul 27, 1:50 pm)
Average64 °F71%29.96 "Hg
* Reported Jul 26 7:20 am — Aug 10 7:20 am, Loughborough. Weather by CustomWeather, © 2020

Note: Actual official high and low records may vary slightly from our data, if they occured in-between our weather recording intervals... More about our weather records

Loughborough Weather History for the Previous 24 Hours

Scroll right to see more
 ConditionsComfort  
Time TempWeatherWind HumidityBarometerVisibility
7:20 am
Mon, Aug 10
59 °FPartly sunny.8 mph94%30.04 "HgN/A
6:50 am59 °FPartly sunny.8 mph94%30.04 "HgN/A
6:20 am59 °FPartly sunny.9 mph94%30.04 "Hg5 mi
5:50 am59 °FPartly sunny.8 mph94%30.04 "Hg5 mi
5:20 am59 °FPassing clouds.7 mph94%30.04 "Hg4 mi
4:50 am61 °FPassing clouds.7 mph88%30.04 "Hg6 mi
4:20 am61 °FPassing clouds.7 mph88%30.04 "HgN/A
3:50 am61 °FPassing clouds.8 mph94%30.04 "Hg6 mi
3:20 am61 °FPassing clouds.7 mph94%30.04 "Hg6 mi
2:50 am61 °FPassing clouds.8 mph94%30.07 "Hg6 mi
2:20 am61 °FPassing clouds.8 mph94%30.07 "HgN/A
1:50 am61 °FPassing clouds.7 mph94%30.07 "HgN/A
1:20 am63 °FPassing clouds.8 mph88%30.07 "HgN/A
12:50 am63 °FPassing clouds.8 mph88%30.07 "HgN/A
12:20 am63 °FPassing clouds.9 mph88%30.07 "HgN/A
11:50 pm
Sun, Aug 9
63 °FPassing clouds.9 mph88%30.07 "HgN/A
11:20 pm63 °FPassing clouds.10 mph88%30.07 "HgN/A
10:50 pm63 °FPassing clouds.10 mph88%30.07 "HgN/A
10:20 pm64 °FPassing clouds.9 mph83%30.07 "HgN/A
9:50 pm64 °FClear.12 mph83%30.07 "Hg10 mi
9:20 pm66 °FClear.10 mph78%30.07 "Hg10 mi
8:50 pm66 °FClear.9 mph78%30.07 "Hg10 mi
8:20 pm68 °FSunny.10 mph78%30.07 "Hg10 mi
7:50 pm68 °FPassing clouds.9 mph78%30.07 "HgN/A
7:20 pm68 °FPassing clouds.10 mph78%30.07 "HgN/A
6:50 pm70 °FSunny.10 mph73%30.07 "Hg10 mi
6:20 pm70 °FPassing clouds.8 mph73%30.07 "HgN/A
5:50 pm70 °FPassing clouds.9 mph73%30.07 "HgN/A
5:20 pm70 °FPassing clouds.12 mph73%30.07 "HgN/A
4:50 pm70 °FPassing clouds.10 mph69%30.09 "HgN/A
4:20 pm70 °FPassing clouds.10 mph73%30.09 "HgN/A
3:50 pm70 °FScattered clouds.12 mph73%30.09 "HgN/A
3:20 pm70 °FScattered clouds.12 mph69%30.09 "HgN/A
2:50 pm70 °FScattered clouds.13 mph69%30.09 "HgN/A
2:20 pm70 °FScattered clouds.12 mph69%30.09 "HgN/A
1:50 pm70 °FPartly sunny.12 mph69%30.12 "HgN/A
1:20 pm66 °FPartly sunny.12 mph78%30.12 "HgN/A
12:50 pm66 °FPartly sunny.12 mph78%30.12 "HgN/A
12:20 pm64 °FPartly sunny.9 mph83%30.12 "HgN/A
11:50 am63 °FPartly sunny.13 mph88%30.12 "HgN/A
11:20 am61 °FPartly sunny.10 mph88%30.12 "HgN/A
10:50 am61 °FLow clouds.12 mph88%30.15 "HgN/A
10:20 am61 °FLow clouds.12 mph88%30.15 "HgN/A
9:50 am59 °FLow clouds.12 mph94%30.15 "HgN/A
8:50 am59 °FLow clouds.13 mph94%30.15 "Hg6 mi
8:20 am57 °FLow clouds.14 mph94%30.15 "Hg5 mi
Weather by CustomWeather, © 2020

See weather overview